GW3044 Weather Reports


time (UTC)temp
F
wind
direction
speed
knots
gust
knots
rain 1hr
in
rain 24hr
in
rain mn
in
humidity
%
barometer
mb
20260505214311 49 2 2.6 8.7 0.00 0.11 0.11 88 980.6
20260505213808 49 73 2.6 7.8 0.00 0.11 0.11 88 981.0
20260505213306 49 48 4.3 7.8 0.00 0.11 0.11 88 980.9
20260505212801 49 23 1.7 7.0 0.00 0.11 0.11 88 980.9
20260505212259 49 5 3.5 8.7 0.00 0.11 0.11 88 980.9
20260505211755 49 31 4.3 11.3 0.00 0.11 0.11 88 980.8
20260505211253 49 23 3.5 14.8 0.00 0.11 0.11 88 980.6
20260505210749 50 47 3.5 8.7 0.00 0.11 0.11 88 980.7
20260505210246 50 27 3.5 7.8 0.00 0.11 0.11 88 980.6
20260505205743 50 45 2.6 7.8 0.00 0.11 0.11 87 980.6
20260505205242 50 9 2.6 8.7 0.00 0.11 0.11 87 980.4
20260505204738 50 30 6.1 18.2 0.00 0.11 0.11 87 980.7
20260505204236 50 48 4.3 7.8 0.00 0.11 0.11 88 980.6
20260505203732 50 37 3.5 7.8 0.00 0.11 0.11 89 980.9
20260505203230 50 52 1.7 7.0 0.00 0.11 0.11 90 980.8
20260505202725 50 17 2.6 5.2 0.00 0.11 0.11 91 980.8
20260505202221 50 335 2.6 7.0 0.00 0.11 0.11 91 980.6
20260505201718 50 29 4.3 9.6 0.00 0.11 0.11 92 980.4
20260505201216 50 54 2.6 9.6 0.00 0.11 0.11 93 980.1
20260505200714 49 83 2.6 11.3 0.00 0.11 0.11 93 980.2
20260505200211 50 56 3.5 14.8 0.00 0.11 0.11 95 980.2
20260505195706 50 94 0.9 11.3 0.00 0.11 0.11 95 980.3
20260505195204 50 338 3.5 7.8 0.00 0.11 0.11 95 980.4
20260505194701 50 71 3.5 9.6 0.00 0.11 0.11 95 980.4
20260505194157 50 68 6.1 11.3 0.00 0.11 0.11 94 980.3
20260505193653 50 10 3.5 8.7 0.00 0.11 0.11 93 980.9
20260505193151 51 37 2.6 6.1 0.00 0.11 0.11 92 980.6
20260505192649 51 29 7.0 9.6 0.00 0.11 0.11 91 980.8
20260505192147 52 66 2.6 6.1 0.00 0.11 0.11 89 980.6
20260505191645 52 53 2.6 7.0 0.00 0.11 0.11 88 980.6
20260505191143 52 0 6.1 14.8 0.00 0.11 0.11 88 980.1
20260505190638 52 8 2.6 16.5 0.00 0.11 0.11 87 980.1
20260505190138 53 341 3.5 8.7 0.00 0.11 0.11 87 980.0
20260505185635 53 62 3.5 10.4 0.00 0.11 0.11 86 980.1
20260505185132 53 34 5.2 10.4 0.00 0.11 0.11 85 980.1
20260505184628 53 57 3.5 12.2 0.00 0.11 0.11 85 980.2
20260505184125 53 207 1.7 13.9 0.00 0.11 0.11 84 980.4
20260505183622 53 36 2.6 4.3 0.00 0.11 0.11 85 980.4
20260505183120 53 47 4.3 7.0 0.00 0.11 0.11 84 980.4
20260505182616 53 10 3.5 7.8 0.00 0.11 0.11 84 980.3
20260505182113 54 299 1.7 8.7 0.00 0.11 0.11 85 980.2
20260505181609 54 38 2.6 14.8 0.00 0.11 0.11 84 980.0
20260505181107 55 6 6.1 8.7 0.00 0.11 0.11 83 979.9
20260505180603 55 50 4.3 10.4 0.00 0.11 0.11 83 979.8
20260505180100 55 39 3.5 6.1 0.00 0.11 0.11 83 979.9
20260505175556 55 35 4.3 10.4 0.00 0.11 0.11 83 979.8
20260505175053 55 355 2.6 13.0 0.00 0.11 0.11 83 980.0
20260505174550 55 50 3.5 13.0 0.00 0.11 0.11 83 980.1
20260505174045 56 346 1.7 10.4 0.00 0.11 0.11 83 980.1
20260505173537 56 354 0.9 9.6 0.00 0.11 0.11 84 980.0
20260505173033 55 24 5.2 11.3 0.00 0.11 0.11 83 980.0
20260505172531 55 12 2.6 11.3 0.00 0.11 0.11 84 980.0
20260505172027 56 39 4.3 7.8 0.00 0.11 0.11 84 980.2
20260505171522 56 56 3.5 8.7 0.00 0.11 0.11 85 980.1
20260505171020 55 82 2.6 13.0 0.00 0.11 0.11 85 980.1
20260505170516 56 343 3.5 7.8 0.00 0.11 0.11 85 980.0
20260505170013 56 2 1.7 7.0 0.00 0.11 0.11 85 979.8
20260505165508 56 37 3.5 7.0 0.00 0.11 0.11 85 980.0
20260505165004 55 55 4.3 10.4 0.00 0.11 0.11 84 979.8
20260505164500 55 32 2.6 15.6 0.00 0.11 0.11 85 979.5
20260505163958 56 37 9.6 12.2 0.00 0.11 0.11 84 979.9
20260505163456 56 39 3.5 14.8 0.00 0.11 0.11 84 979.5
20260505162956 57 32 3.5 10.4 0.00 0.11 0.11 83 979.9
20260505162451 56 73 5.2 9.6 0.00 0.11 0.11 84 979.6
20260505161948 56 44 3.5 7.8 0.00 0.11 0.11 83 979.7
20260505161444 57 1 2.6 7.8 0.00 0.11 0.11 83 979.9
20260505160942 57 29 6.1 10.4 0.00 0.11 0.11 82 980.3
20260505160440 57 26 1.7 7.0 0.00 0.11 0.11 83 979.9
20260505152910 59 19 3.5 8.7 0.00 0.11 0.11 84 979.2
20260505152407 59 47 3.5 6.1 0.00 0.11 0.11 84 979.2
20260505151902 59 2 1.7 5.2 0.00 0.11 0.11 84 978.8
20260505151358 59 307 2.6 4.3 0.00 0.11 0.11 83 978.6
20260505150854 59 47 3.5 9.6 0.00 0.11 0.11 83 978.7
20260505150352 59 82 2.6 7.8 0.00 0.11 0.11 84 978.9
20260505140317 57 81 0.0 5.2 0.00 0.11 0.11 87 979.1
20260505130240 57 23 2.6 5.2 0.00 0.11 0.11 89 978.6
20260505124731 57 339 1.7 4.3 0.00 0.11 0.11 90 978.7
20260505124228 57 32 1.7 7.8 0.00 0.11 0.11 90 978.7
20260505123723 57 30 2.6 7.0 0.00 0.11 0.11 90 978.7
20260505123220 57 348 1.7 4.3 0.00 0.11 0.11 91 978.5
20260505122717 57 10 0.9 7.0 0.00 0.11 0.11 90 978.3
20260505122214 57 87 0.9 7.8 0.00 0.11 0.11 91 977.9
20260505121710 57 47 2.6 7.8 0.00 0.11 0.11 91 978.1
20260505121207 57 95 3.5 5.2 0.00 0.11 0.11 93 977.8
20260505120703 58 48 0.0 7.0 0.00 0.11 0.11 93 978.1
20260505120159 58 7 2.6 5.2 0.00 0.11 0.11 93 978.3
20260505115653 58 24 1.7 4.3 0.00 0.11 0.11 93 978.2
20260505115151 58 354 2.6 4.3 0.00 0.11 0.11 94 978.0
20260505114648 58 30 1.7 4.3 0.00 0.11 0.11 95 978.2
20260505114144 58 87 1.7 3.5 0.00 0.11 0.11 94 978.1
20260505113641 58 65 0.0 2.6 0.00 0.11 0.11 94 978.1
20260505113137 59 73 1.7 3.5 0.00 0.11 0.11 95 977.9
20260505112633 59 6 0.9 5.2 0.00 0.11 0.11 95 977.6
20260505112132 59 16 2.6 4.3 0.05 0.11 0.11 94 977.9
20260505111625 59 347 2.6 7.8 0.02 0.10 0.10 94 977.2
20260505111121 60 10 4.3 7.0 0.02 0.10 0.10 94 977.3
20260505110618 60 44 1.7 3.5 0.02 0.10 0.10 94 978.0
20260505110115 60 66 1.7 3.5 0.00 0.09 0.09 94 978.3
20260505102051 60 355 1.7 2.6 0.02 0.09 0.09 93 977.8
20260505101549 60 337 3.5 6.1 0.02 0.09 0.09 93 977.5
20260505101045 60 336 4.3 7.0 0.02 0.09 0.09 93 977.5
20260505100542 59 344 1.7 7.8 0.00 0.09 0.09 94 977.6
20260505100039 59 359 1.7 2.6 0.00 0.09 0.09 94 977.4
20260505095535 60 331 1.7 1.7 0.00 0.09 0.09 93 976.8
20260505095031 60 21 0.9 1.7 0.02 0.09 0.09 92 976.8
20260505094528 60 141 0.0 0.0 0.02 0.09 0.09 91 976.7
20260505094024 61 202 0.0 1.7 0.00 0.08 0.08 90 976.7
20260505093521 60 259 1.7 1.7 0.00 0.08 0.08 90 976.8
20260505093018 61 54 0.0 2.6 0.00 0.08 0.08 87 976.6
20260505092516 62 28 0.0 4.3 0.00 0.08 0.08 85 976.5
20260505092014 61 252 0.9 5.2 0.00 0.08 0.08 86 976.3
20260505091511 60 176 1.7 5.2 0.00 0.08 0.08 90 976.5
20260505091009 60 179 1.7 7.0 0.00 0.08 0.08 93 975.6
20260505090506 60 186 2.6 10.4 0.02 0.08 0.08 95 974.9
20260505090004 60 125 4.3 8.7 0.00 0.08 0.08 95 974.8
20260505085502 60 169 2.6 8.7 0.02 0.08 0.08 96 975.0
20260505084959 60 192 2.6 9.6 0.07 0.08 0.08 96 975.6
20260505084458 60 187 1.7 10.4 0.09 0.07 0.07 96 975.9
20260505083955 61 161 1.7 4.3 0.09 0.07 0.07 96 977.0
20260505083452 61 97 1.7 2.6 0.07 0.06 0.06 95 977.7
20260505082948 61 46 1.7 5.2 0.05 0.05 0.05 94 977.7
20260505082444 61 322 3.5 7.0 0.05 0.05 0.05 94 977.6
20260505081942 61 341 1.7 4.3 0.02 0.04 0.04 94 977.6
20260505081438 61 224 4.3 10.4 0.02 0.04 0.04 94 977.7
20260505080935 61 198 2.6 7.0 0.05 0.04 0.04 93 977.6
20260505080431 62 218 2.6 7.0 0.07 0.03 0.03 92 977.4
20260505075926 62 241 3.5 9.6 0.07 0.02 0.02 90 977.1
20260505075424 62 223 7.0 10.4 0.09 0.02 0.02 88 977.2
20260505074921 63 244 3.5 7.8 0.05 0.01 0.01 85 977.1
20260505074418 64 343 2.6 6.1 0.02 0.00 0.00 83 977.2
20260505073915 64 209 2.6 7.8 0.00 0.00 0.00 81 977.5
20260505073413 64 298 1.7 7.0 0.00 0.00 0.00 80 977.3
20260505072910 64 205 1.7 4.3 0.00 0.00 0.00 79 977.3
20260505072406 64 131 0.9 5.2 0.00 0.00 0.00 78 977.3
20260505071902 65 137 0.0 2.6 0.00 0.00 0.00 76 977.1
20260505071358 65 263 1.7 3.5 0.00 0.00 0.00 76 977.3
20260505070857 65 235 0.0 4.3 0.00 0.00 0.00 75 977.3
20260505070353 65 189 1.7 7.0 0.00 0.00 0.00 75 977.2
20260505065848 65 190 0.0 7.8 0.00 0.00 0.00 75 976.8
20260505065345 65 191 1.7 6.1 0.00 0.00 0.00 75 977.1
20260505064842 65 182 0.9 5.2 0.00 0.00 0.00 75 977.1
20260505064339 65 230 2.6 3.5 0.00 0.00 0.00 75 977.1
20260505063838 65 186 1.7 4.3 0.00 0.00 0.00 74 977.4
20260505063333 65 190 1.7 4.3 0.00 0.00 0.00 75 977.5
20260505062830 65 178 1.7 3.5 0.00 0.00 0.00 74 977.7
20260505062327 65 161 2.6 5.2 0.00 0.00 0.00 75 977.8
20260505061824 65 209 1.7 3.5 0.00 0.00 0.00 75 977.7
20260505061322 65 186 1.7 4.3 0.00 0.00 0.00 74 977.8
20260505060820 65 159 0.9 3.5 0.00 0.00 0.00 75 977.9
20260505060316 65 226 1.7 3.5 0.00 0.00 0.00 75 977.8
20260505055812 65 106 0.9 3.5 0.00 0.00 0.00 75 977.8
20260505055308 65 179 0.9 4.3 0.00 0.00 0.00 74 977.4
20260505054806 65 129 1.7 3.5 0.00 0.00 0.00 74 977.7
20260505054303 65 186 2.6 5.2 0.00 0.00 0.00 74 977.6
20260505053801 65 126 0.9 2.6 0.00 0.00 0.00 74 977.5
20260505053258 65 141 0.9 6.1 0.00 0.00 0.00 74 977.5
20260505052755 65 117 1.7 3.5 0.00 0.00 0.00 74 977.7
20260505052252 65 125 2.6 5.2 0.00 0.00 0.00 74 977.4
20260505051748 65 141 3.5 6.1 0.00 0.00 0.00 74 977.5
20260505051246 65 131 4.3 7.0 0.00 0.00 0.00 73 977.6
20260505050744 65 154 0.9 5.2 0.00 0.00 0.00 73 977.9
20260505050243 65 164 0.9 4.3 0.00 0.00 0.00 73 977.6
20260505041712 66 149 0.9 3.5 0.00 0.00 0.00 71 978.3
20260505041209 66 225 0.0 2.6 0.00 0.00 0.00 71 978.5
20260505040707 66 132 0.9 2.6 0.00 0.00 0.00 70 978.4
20260505040204 67 139 0.9 6.1 0.00 0.00 0.00 70 978.6
20260505035700 67 142 0.0 3.5 0.00 0.00 0.00 70 978.5
20260505035156 67 100 0.0 2.6 0.00 0.00 0.00 70 978.6
20260505034653 67 193 0.0 3.5 0.00 0.00 0.00 70 978.6
20260505034150 67 201 1.7 1.7 0.00 0.00 0.00 70 978.5
20260505033646 67 89 0.0 1.7 0.00 0.00 0.00 69 978.6
20260505033145 67 91 0.0 1.7 0.00 0.00 0.00 69 978.7
20260505032642 67 107 0.0 0.9 0.00 0.00 0.00 70 978.7
20260505032133 68 143 0.0 2.6 0.00 0.00 0.00 69 978.5
20260505031630 68 217 0.0 1.7 0.00 0.00 0.00 68 978.5
20260505031126 68 89 0.0 2.6 0.00 0.00 0.00 68 978.8
20260505030624 68 282 0.0 2.6 0.00 0.00 0.00 68 978.6
20260505030119 68 222 0.9 2.6 0.00 0.00 0.00 67 978.6
20260505025615 68 61 1.7 2.6 0.00 0.00 0.00 67 978.5
20260505025114 69 226 3.5 4.3 0.00 0.00 0.00 66 978.6
20260505024611 69 199 2.6 4.3 0.00 0.00 0.00 66 978.6
20260505024108 69 200 1.7 5.2 0.00 0.00 0.00 65 978.4
20260505023606 69 239 0.0 2.6 0.00 0.00 0.00 66 978.6
20260505023103 69 148 0.9 6.1 0.00 0.00 0.00 65 978.3
20260505022600 69 114 0.0 3.5 0.00 0.00 0.00 65 978.2
20260505022057 69 202 0.0 3.5 0.00 0.00 0.00 65 978.2
20260505021554 70 149 2.6 5.2 0.00 0.00 0.00 64 978.1
20260505021051 70 211 1.7 6.1 0.00 0.00 0.00 65 977.7
20260505020550 70 128 1.7 2.6 0.00 0.00 0.00 65 978.0
20260505020048 70 185 0.0 4.3 0.00 0.00 0.00 65 977.9
20260505015545 70 166 1.7 3.5 0.00 0.00 0.00 64 977.7
20260505015041 70 146 0.0 1.7 0.00 0.00 0.00 64 977.8
20260505014538 70 177 0.9 2.6 0.00 0.00 0.00 63 977.6
20260505014035 70 121 2.6 2.6 0.00 0.00 0.00 63 977.5
20260505013532 71 222 0.9 2.6 0.00 0.00 0.00 62 977.6
20260505013030 71 145 0.9 2.6 0.00 0.00 0.00 61 977.5
20260505012528 71 212 1.7 2.6 0.00 0.00 0.00 61 977.1
20260505012025 71 251 0.9 2.6 0.00 0.00 0.00 61 977.2
20260505011520 71 115 2.6 3.5 0.00 0.00 0.00 59 977.5
20260505011017 71 213 0.0 2.6 0.00 0.00 0.00 61 977.2
20260505010512 72 137 0.0 2.6 0.00 0.00 0.00 59 977.4
20260505010010 72 248 0.0 2.6 0.00 0.00 0.00 59 977.1
20260505005506 72 216 0.0 1.7 0.00 0.00 0.00 58 977.2
20260505005004 73 247 2.6 4.3 0.00 0.00 0.00 57 977.1
20260505004501 73 195 0.0 1.7 0.00 0.00 0.00 57 977.1
20260505003957 73 149 0.0 4.3 0.00 0.00 0.00 57 977.1
20260505003455 73 52 1.7 3.5 0.00 0.00 0.00 56 976.9
20260505002950 74 230 0.0 3.5 0.00 0.00 0.00 56 977.0
20260505002446 74 230 0.0 1.7 0.00 0.00 0.00 56 977.1
20260505001945 74 181 0.0 2.6 0.00 0.00 0.00 54 977.1
20260505001442 74 192 0.0 2.6 0.00 0.00 0.00 54 976.8
20260505000939 75 205 0.0 2.6 0.00 0.00 0.00 52 976.8
20260505000437 75 225 0.9 2.6 0.00 0.00 0.00 52 977.0
20260504235934 76 254 1.7 4.3 0.00 0.00 0.00 50 976.8
20260504235431 76 190 1.7 3.5 0.00 0.00 0.00 51 976.9
20260504234927 76 109 0.9 5.2 0.00 0.00 0.00 49 976.7
20260504234425 76 234 0.9 7.8 0.00 0.00 0.00 50 976.8
20260504233921 77 229 2.6 6.1 0.00 0.00 0.00 48 976.8
20260504233417 78 135 0.9 2.6 0.00 0.00 0.00 49 976.8
20260504232914 78 209 0.9 6.1 0.00 0.00 0.00 49 976.8
20260504232411 78 221 1.7 6.1 0.00 0.00 0.00 48 976.7
20260504231908 79 230 0.9 4.3 0.00 0.00 0.00 48 976.7
20260504231404 79 204 1.7 6.1 0.00 0.00 0.00 48 976.8
20260504230901 79 204 4.3 7.8 0.00 0.00 0.00 48 976.8
20260504230358 80 223 0.9 8.7 0.00 0.00 0.00 46 977.0
20260504225857 80 282 2.6 6.1 0.00 0.00 0.00 47 977.0
20260504225353 80 249 3.5 7.8 0.00 0.00 0.00 45 976.8
20260504224851 81 262 6.1 10.4 0.00 0.00 0.00 45 976.9
20260504224347 81 238 2.6 7.0 0.00 0.00 0.00 45 976.8
20260504223844 81 219 1.7 12.2 0.00 0.00 0.00 45 976.8
20260504223339 81 247 2.6 7.8 0.00 0.00 0.00 45 977.0
20260504222836 81 183 0.0 4.3 0.00 0.00 0.00 47 977.0
20260504222333 80 167 1.7 6.1 0.00 0.00 0.00 46 976.7
20260504221832 81 202 2.6 13.0 0.00 0.00 0.00 46 977.0
20260504221328 81 179 1.7 7.0 0.00 0.00 0.00 46 976.9
20260504220825 82 243 3.5 8.7 0.00 0.00 0.00 47 976.9
20260504220322 80 178 0.0 7.8 0.00 0.00 0.00 47 976.9
20260504215819 80 227 7.0 13.9 0.00 0.00 0.00 47 976.9
20260504215315 80 336 2.6 6.1 0.00 0.00 0.00 47 977.1
20260504214811 80 182 2.6 6.1 0.00 0.00 0.00 47 977.1